| time (UTC) | temp F | wind direction | speed MPH | gust MPH | rain 1hr in | rain 24hr in | rain mn in | humidity % | barometer mb |
| 20260510190306 | 61 | 237 | 4.0 | 7.0 | 0.00 | 0.07 | 0.07 | 85 | 1010.6 |
| 20260510185305 | 61 | 249 | 5.0 | 7.0 | 0.01 | 0.07 | 0.07 | 84 | 1010.5 |
| 20260510184303 | 61 | 286 | 2.0 | 3.0 | 0.03 | 0.07 | 0.07 | 84 | 1010.4 |
| 20260510180305 | 60 | 256 | 7.0 | 13.0 | 0.06 | 0.07 | 0.07 | 82 | 1010.1 |
| 20260510174806 | 61 | 305 | 12.0 | 20.0 | 0.03 | 0.05 | 0.05 | 82 | 1009.9 |
| 20260510174303 | 61 | 309 | 11.0 | 20.0 | 0.02 | 0.04 | 0.04 | 81 | 1009.8 |
| 20260510173305 | 62 | 310 | 12.0 | 18.0 | 0.01 | 0.02 | 0.02 | 79 | 1009.6 |
| 20260510171806 | 63 | 333 | 10.0 | 15.0 | 0.00 | 0.02 | 0.02 | 78 | 1009.6 |
| 20260510170803 | 63 | 342 | 7.0 | 12.0 | 0.00 | 0.02 | 0.02 | 77 | 1009.5 |
| 20260510170306 | 63 | 330 | 9.0 | 13.0 | 0.00 | 0.02 | 0.02 | 76 | 1009.4 |
| 20260510165804 | 64 | 325 | 6.0 | 9.0 | 0.00 | 0.02 | 0.02 | 76 | 1009.3 |
| 20260510164807 | 63 | 333 | 9.0 | 12.0 | 0.00 | 0.02 | 0.02 | 75 | 1009.2 |
| 20260510162306 | 66 | 348 | 9.0 | 14.0 | 0.00 | 0.02 | 0.02 | 67 | 1008.7 |
| 20260510160306 | 66 | 244 | 7.0 | 12.0 | 0.00 | 0.02 | 0.02 | 63 | 1008.2 |
| 20260510155803 | 67 | 296 | 5.0 | 13.0 | 0.00 | 0.02 | 0.02 | 64 | 1008.1 |
| 20260510155305 | 67 | 254 | 9.0 | 13.0 | 0.02 | 0.02 | 0.02 | 63 | 1008.1 |
| 20260510145804 | 65 | 195 | 9.0 | 20.0 | 0.02 | 0.02 | 0.02 | 59 | 1008.3 |
| 20260510144806 | 68 | 229 | 7.0 | 12.0 | 0.00 | 0.01 | 0.00 | 50 | 1008.1 |
| 20260510140306 | 67 | 67 | 4.0 | 14.0 | 0.00 | 0.01 | 0.00 | 54 | 1008.0 |
| 20260510135803 | 67 | 131 | 6.0 | 13.0 | 0.00 | 0.01 | 0.00 | 55 | 1008.0 |
| 20260510134807 | 67 | 148 | 3.0 | 9.0 | 0.00 | 0.01 | 0.00 | 56 | 1008.4 |
| 20260510133804 | 66 | 186 | 3.0 | 7.0 | 0.00 | 0.01 | 0.00 | 56 | 1008.3 |
| 20260510133306 | 66 | 196 | 5.0 | 10.0 | 0.00 | 0.01 | 0.00 | 56 | 1008.3 |
| 20260510131806 | 65 | 119 | 6.0 | 13.0 | 0.00 | 0.01 | 0.00 | 56 | 1007.7 |
| 20260510131304 | 65 | 79 | 9.0 | 13.0 | 0.00 | 0.01 | 0.00 | 55 | 1007.1 |
| 20260510125803 | 65 | 172 | 5.0 | 14.0 | 0.00 | 0.01 | 0.00 | 53 | 1008.3 |
| 20260510123803 | 66 | 203 | 9.0 | 26.0 | 0.00 | 0.01 | 0.00 | 55 | 1009.4 |
| 20260510123305 | 66 | 169 | 6.0 | 14.0 | 0.00 | 0.01 | 0.00 | 57 | 1009.5 |
| 20260510121303 | 64 | 203 | 6.0 | 12.0 | 0.00 | 0.01 | 0.00 | 67 | 1009.6 |
| 20260510120305 | 63 | 117 | 6.0 | 10.0 | 0.00 | 0.01 | 0.00 | 76 | 1009.5 |
| 20260510114304 | 63 | 87 | 6.0 | 12.0 | 0.00 | 0.01 | 0.00 | 76 | 1009.5 |
| 20260510112804 | 63 | 60 | 6.0 | 13.0 | 0.00 | 0.01 | 0.00 | 76 | 1009.5 |
| 20260510111304 | 63 | 27 | 5.0 | 18.0 | 0.00 | 0.01 | 0.00 | 76 | 1009.5 |
| 20260510105804 | 64 | 21 | 9.0 | 13.0 | 0.00 | 0.01 | 0.00 | 75 | 1009.4 |
| 20260510104806 | 64 | 73 | 5.0 | 7.0 | 0.00 | 0.01 | 0.00 | 76 | 1009.6 |
| 20260510104303 | 64 | 41 | 7.0 | 12.0 | 0.00 | 0.01 | 0.00 | 76 | 1009.5 |
| 20260510103307 | 64 | 333 | 6.0 | 12.0 | 0.00 | 0.01 | 0.00 | 74 | 1009.3 |
| 20260510102306 | 64 | 30 | 8.0 | 12.0 | 0.00 | 0.01 | 0.00 | 73 | 1009.2 |
| 20260510100306 | 66 | 327 | 9.0 | 13.0 | 0.00 | 0.01 | 0.00 | 67 | 1009.2 |
| 20260510095803 | 66 | 69 | 4.0 | 8.0 | 0.00 | 0.01 | 0.00 | 64 | 1009.4 |
| 20260510095305 | 67 | 90 | 5.0 | 10.0 | 0.00 | 0.01 | 0.00 | 63 | 1009.4 |
| 20260510094807 | 68 | 119 | 3.0 | 10.0 | 0.00 | 0.01 | 0.00 | 62 | 1009.4 |
| 20260510085803 | 68 | 210 | 3.0 | 8.0 | 0.00 | 0.01 | 0.00 | 54 | 1009.3 |
| 20260510083804 | 67 | 129 | 4.0 | 8.0 | 0.00 | 0.01 | 0.00 | 55 | 1009.4 |
| 20260510082804 | 67 | 192 | 3.0 | 7.0 | 0.00 | 0.01 | 0.00 | 56 | 1009.4 |
| 20260510081303 | 66 | 178 | 3.0 | 6.0 | 0.00 | 0.01 | 0.00 | 56 | 1009.5 |
| 20260510072305 | 64 | 221 | 6.0 | 9.0 | 0.00 | 0.02 | 0.00 | 61 | 1009.2 |
| 20260510071806 | 64 | 225 | 5.0 | 9.0 | 0.00 | 0.02 | 0.00 | 61 | 1009.2 |
| 20260510070305 | 64 | 191 | 5.0 | 9.0 | 0.00 | 0.02 | 0.00 | 61 | 1008.9 |
| 20260510065804 | 64 | 199 | 5.0 | 10.0 | 0.00 | 0.02 | 0.00 | 61 | 1008.9 |
| 20260510063306 | 62 | 245 | 5.0 | 8.0 | 0.00 | 0.02 | 0.00 | 65 | 1008.7 |
| 20260510061806 | 63 | 213 | 3.0 | 6.0 | 0.00 | 0.02 | 0.00 | 64 | 1008.6 |
| 20260510060804 | 62 | 279 | 4.0 | 6.0 | 0.00 | 0.02 | 0.00 | 64 | 1008.5 |
| 20260510055803 | 62 | 235 | 6.0 | 12.0 | 0.00 | 0.02 | 0.00 | 65 | 1008.3 |
| 20260510053804 | 62 | 186 | 2.0 | 3.0 | 0.00 | 0.02 | 0.00 | 67 | 1008.2 |
| 20260510050804 | 62 | 231 | 2.0 | 10.0 | 0.00 | 0.02 | 0.00 | 66 | 1008.0 |
| 20260510050306 | 62 | 241 | 3.0 | 7.0 | 0.00 | 0.02 | 0.00 | 66 | 1007.9 |
| 20260510045306 | 62 | 252 | 5.0 | 8.0 | 0.00 | 0.02 | 0.00 | 67 | 1007.8 |
| 20260510043307 | 62 | 295 | 2.0 | 5.0 | 0.00 | 0.02 | 0.00 | 69 | 1007.8 |
| 20260510042804 | 63 | 274 | 2.0 | 6.0 | 0.00 | 0.02 | 0.00 | 68 | 1007.7 |
| 20260510042306 | 63 | 280 | 3.0 | 5.0 | 0.00 | 0.02 | 0.00 | 67 | 1007.8 |
| 20260510035804 | 63 | 253 | 3.0 | 8.0 | 0.00 | 0.02 | 0.00 | 65 | 1007.6 |
| 20260510033804 | 64 | 236 | 6.0 | 9.0 | 0.00 | 0.02 | 0.00 | 63 | 1007.6 |
| 20260510033306 | 64 | 225 | 6.0 | 14.0 | 0.00 | 0.02 | 0.00 | 62 | 1007.5 |
| 20260510032306 | 64 | 231 | 7.0 | 16.0 | 0.00 | 0.02 | 0.00 | 63 | 1007.3 |
| 20260510022804 | 64 | 189 | 12.0 | 20.0 | 0.00 | 0.02 | 0.00 | 64 | 1006.8 |
| 20260510021304 | 64 | 222 | 4.0 | 14.0 | 0.00 | 0.02 | 0.00 | 63 | 1006.9 |
| 20260510020803 | 64 | 198 | 7.0 | 12.0 | 0.00 | 0.02 | 0.00 | 63 | 1006.9 |
| 20260510020307 | 64 | 191 | 9.0 | 15.0 | 0.00 | 0.02 | 0.00 | 63 | 1007.0 |
| 20260510015306 | 64 | 213 | 9.0 | 20.0 | 0.00 | 0.02 | 0.00 | 63 | 1007.0 |
| 20260510014806 | 64 | 242 | 9.0 | 18.0 | 0.00 | 0.02 | 0.00 | 63 | 1007.2 |
| 20260510014304 | 64 | 219 | 6.0 | 12.0 | 0.00 | 0.02 | 0.00 | 64 | 1007.1 |
| 20260510012804 | 64 | 208 | 13.0 | 23.0 | 0.00 | 0.02 | 0.00 | 64 | 1007.0 |
| 20260510010803 | 64 | 204 | 9.0 | 20.0 | 0.00 | 0.02 | 0.00 | 65 | 1007.2 |
| 20260510010306 | 64 | 210 | 6.0 | 12.0 | 0.00 | 0.02 | 0.00 | 65 | 1007.2 |
| 20260510005306 | 64 | 206 | 6.0 | 12.0 | 0.00 | 0.02 | 0.00 | 65 | 1007.4 |
| 20260510004807 | 64 | 148 | 9.0 | 14.0 | 0.00 | 0.02 | 0.00 | 65 | 1007.5 |
| 20260510002803 | 65 | 182 | 12.0 | 17.0 | 0.00 | 0.02 | 0.00 | 62 | 1007.7 |
| 20260510001807 | 65 | 185 | 7.0 | 16.0 | 0.00 | 0.02 | 0.00 | 61 | 1007.5 |
| 20260510001303 | 65 | 197 | 10.0 | 17.0 | 0.00 | 0.02 | 0.00 | 60 | 1007.6 |
| 20260510000306 | 66 | 197 | 6.0 | 17.0 | 0.00 | 0.02 | 0.00 | 61 | 1007.7 |
| 20260509234806 | 65 | 233 | 6.0 | 13.0 | 0.00 | 0.02 | 0.00 | 63 | 1007.8 |
| 20260509233306 | 63 | 170 | 1.0 | 8.0 | 0.00 | 0.02 | 0.00 | 69 | 1007.9 |
| 20260509231806 | 63 | 280 | 2.0 | 3.0 | 0.00 | 0.02 | 0.00 | 70 | 1008.0 |
| 20260509230806 | 63 | 102 | 3.0 | 8.0 | 0.00 | 0.02 | 0.00 | 70 | 1007.9 |
| 20260509230308 | 63 | 108 | 3.0 | 6.0 | 0.00 | 0.02 | 0.00 | 70 | 1007.8 |
| 20260509225803 | 63 | 161 | 5.0 | 10.0 | 0.00 | 0.02 | 0.00 | 70 | 1007.8 |
| 20260509224806 | 63 | 137 | 3.0 | 8.0 | 0.00 | 0.02 | 0.00 | 71 | 1008.0 |
| 20260509224303 | 63 | 197 | 2.0 | 6.0 | 0.00 | 0.02 | 0.00 | 71 | 1008.0 |
| 20260509222804 | 64 | 252 | 3.0 | 7.0 | 0.00 | 0.02 | 0.00 | 71 | 1007.8 |
| 20260509220306 | 65 | 191 | 3.0 | 6.0 | 0.00 | 0.02 | 0.00 | 69 | 1007.8 |
| 20260509214304 | 66 | 155 | 2.0 | 10.0 | 0.00 | 0.02 | 0.02 | 71 | 1008.1 |
| 20260509213804 | 66 | 206 | 3.0 | 6.0 | 0.00 | 0.02 | 0.02 | 71 | 1008.2 |
| 20260509213307 | 66 | 188 | 2.0 | 9.0 | 0.00 | 0.02 | 0.02 | 70 | 1008.3 |
| 20260509212306 | 66 | 211 | 6.0 | 12.0 | 0.00 | 0.02 | 0.02 | 70 | 1008.3 |
| 20260509211303 | 65 | 220 | 6.0 | 9.0 | 0.00 | 0.02 | 0.02 | 71 | 1008.3 |
| 20260509210804 | 65 | 248 | 3.0 | 10.0 | 0.00 | 0.02 | 0.02 | 73 | 1008.3 |
| 20260509210306 | 65 | 239 | 7.0 | 10.0 | 0.00 | 0.02 | 0.02 | 73 | 1008.3 |
| 20260509205804 | 65 | 260 | 1.0 | 7.0 | 0.00 | 0.02 | 0.02 | 73 | 1007.9 |
| 20260509205307 | 65 | 116 | 1.0 | 3.0 | 0.00 | 0.02 | 0.02 | 73 | 1007.6 |
| 20260509204807 | 65 | 107 | 1.0 | 5.0 | 0.00 | 0.02 | 0.02 | 73 | 1007.6 |
| 20260509194806 | 64 | 120 | 3.0 | 8.0 | 0.00 | 0.02 | 0.02 | 75 | 1006.7 |
| 20260509194303 | 64 | 139 | 1.0 | 6.0 | 0.00 | 0.02 | 0.02 | 77 | 1006.5 |
| 20260509193306 | 64 | 145 | 1.0 | 3.0 | 0.00 | 0.02 | 0.02 | 76 | 1006.7 |
| 20260509192306 | 64 | 124 | 3.0 | 5.0 | 0.00 | 0.02 | 0.02 | 77 | 1006.6 |
| 20260509190804 | 63 | 52 | 1.0 | 3.0 | 0.00 | 0.02 | 0.02 | 78 | 1006.3 |